SCOUT B DEB, 28265

Orbit data source: Space-Track

SCOUT B DEB, 28265 is space debris in LEO originally from a launch on Fri, 10 Jun 1966 UTC launched from the Wallops Island (WLPIS). Debris objects in space refer to the collection of defunct objects orbiting the Earth. Examples of debris include non-operational satellites, rocket bodies, and fragments generated from explosions, collisions, or faulty payload assembly.

Loading next visibility...
Identifier
28265, 1966-052E
Orbit
LEO
Country
Flag of USUS
Related business
Manufacturer
Unknown
Mission
Spacecraft
Bus & Motor
Unknown
Mass
Unknown
Launch date (UTC)
1966-06-10 (60 years ago)
Launch vehicle
Unknown
Launch site
Wallops Island (WLPIS)
Object type
Payload
Rocket body
Debris
Shape & HBR
Unknown shape, 0.1 m
Radar Cross Section
Small (<0.1 m²)

Expand to show TLE details & history
Last TLE update: 3 months ago

TLE from 3 months ago
0 SCOUT B DEB
1 28265U 66052E   26017.62635545  .00004743  00000-0  44610-2 0  9999
2 28265  40.8625 127.4542 1989851 150.6080 222.3016 10.68672502 57001
Epoch: 2026-01-17T15:01Z
TLE epoch observation values (Epoch: 2026-01-17T15:01:57.110Z)
Latitude
-0.00004°
Longitude
144.91762°
Altitude
3,735.508 km
Speed
5.75 km/s
True Right ascension
08h 29m 48s
True Declination
0° 00' 00"
Sunlit
Object was in full shadow at epoch
Visualization orbit readout
Latitude
Unknown
Longitude
Unknown
Altitude
Unknown
Speed
Unknown
Apparent Right ascension
Unknown
Apparent Declination
Unknown
Sunlit
N/A
Visualization observer readout
Local Sidereal Time
17:36:43
Azimuth
Unknown
Elevation
Unknown
Doppler factor
Unknown
Orbital elements
Apogee altitude
4,063.023 km
Perigee altitude
597.367 km
Semi-major axis
8,708.332 km
Eccentricity
0.19899
Inclination
40.8625°
RAAN
127.4542°
Arg. of periapsis
150.608°
True anomaly
209.45569°
Mean anomaly
222.3016°
Eccentric anomaly
215.65579°
Mean motion
2.6708 °/min
Orbital period
134.79 mins
BSTAR
0.004461
Loading maneuver chart data...
Computing Atmospheric mass density...
Loading historical data...
Loading historical data...
Loading historical data...
Loading historical data...
Loading historical data...
Loading historical data...
Loading historical data...
Other satellites on launch #52 in the year 1966 (1966-06-10 UTC)

Documentation

Showing up to 5 results
|